SCP
0 0 0 0 0 0 0 0 0 0 0 0 0 0 0 0 0 0 0 0 1 0 0 0 0 0 0 0 0 0 0 0 0 0 0 0 0 0 0 0 0 0 0
0 0 0 0 0 0 0 0 0 0 0 0 0 0 0 0 0 0 0 1 1 1 0 1 0 0 0 0 0 0 0 0 0 0 0 0 0 0 0 0 -0 0 0
0 0 0 0 0 0 0 0 0 0 0 0 0 0 0 0 0 0 0 0 1 1 0 1 0 0 0 0 0 0 0 0 0 0 0 0 0 0 0 0 0 0 0
0 0 0 0 0 0 0 0 0 0 0 0 0 0 0 0 0 0 0 0 0 1 1 0 0 0 0 0 0 0 0 0 0 0 0 0 0 0 0 0 0 0 0
0 0 0 0 0 0 0 0 0 0 0 0 0 0 0 0 0 0 0 0 0 0 0 0 0 0 0 0 0 0 0 0 0 0 0 0 0 0 0 0 0 0 0
0 0 0 0 0 0 0 0 0 0 0 0 0 0 0 0 0 0 0 0 0 0 0 0 0 0 0 0 0 0 -0 0 0 0 0 0 0 0 0 0 0 -0 -0
1 0 1 0 0 0 0 0 0 0 0 0 0 0 0 0 0 0 0 0 0 0 0 0 0 0 0 0 0 0 -0 0 0 -0 0 0 0 0 -0 0 -0 -0 -0
3 2 1 1 0 0 0 0 0 0 0 0 0 0 0 0 0 0 0 0 0 0 0 0 0 0 0 0 0 0 0 -0 -0 -0 0 0 0 0 0 0 0 0 -0
3 2 1 2 1 1 0 0 0 0 0 0 0 0 0 0 0 0 0 0 0 0 0 0 0 0 0 0 0 0 0 0 0 0 0 0 0 0 0 0 0 -0 -0
3 3 2 2 1 1 1 0 0 0 0 0 0 0 0 0 0 0 0 0 0 0 0 0 0 0 0 0 0 0 0 0 0 0 0 0 0 0 0 0 -0 -0 -0
4 4 2 1 1 1 0 0 0 0 0 0 0 0 0 0 0 0 0 0 0 0 0 0 0 0 0 0 0 0 0 0 0 0 0 0 0 0 0 -0 -0 -0 -0
3 3 2 1 1 1 1 0 0 0 0 0 0 0 0 0 0 0 0 0 0 0 0 0 0 0 0 0 0 0 0 0 0 0 0 0 0 0 0 0 -0 -0 -0
2 2 1 1 1 1 1 0 0 0 0 0 0 0 0 0 0 0 0 0 0 0 0 0 0 0 0 0 0 0 0 0 0 0 0 0 0 0 0 0 -0 -0 -0
2 1 1 1 1 1 1 0 0 0 0 0 0 0 0 0 0 0 0 0 0 0 0 0 0 0 0 0 0 0 0 0 0 0 0 0 0 0 0 0 0 0 -0
1 1 0 1 1 1 1 0 0 0 0 0 0 0 0 0 0 0 0 0 0 0 0 0 0 0 0 0 0 0 0 0 0 0 0 0 0 0 0 0 0 0 0
1 0 0 0 1 1 0 0 0 0 0 0 0 0 0 0 0 0 0 0 0 0 0 0 0 0 0 0 0 0 0 0 0 0 0 0 0 0 0 0 0 0 0
0 0 0 1 1 0 0 0 0 0 0 0 0 0 0 0 0 0 0 0 0 0 -0 0 0 0 0 0 0 0 0 0 0 0 0 0 0 0 0 0 0 0 0
1 1 1 0 0 0 0 0 0 0 0 0 0 0 0 0 0 0 0 0 0 0 -0 0 0 0 0 0 0 0 0 0 0 0 0 0 0 0 0 0 0 0 0
1 0 0 0 0 0 0 0 0 0 0 0 0 0 0 0 0 0 0 0 0 0 0 0 0 0 0 0 0 0 0 0 0 0 0 0 0 0 0 0 0 0 0
0 0 0 0 0 0 0 0 0 0 0 0 0 0 0 0 0 0 0 0 0 0 0 0 0 0 0 0 0 0 0 0 0 0 0 0 0 0 0 0 0 0 0
0 0 0 0 0 0 0 0 0 0 0 0 0 0 0 0 0 0 0 0 0 0 0 0 0 0 0 0 0 0 0 0 0 0 0 0 0 0 0 0 0 0 0
0 0 0 0 0 0 0 0 0 0 0 0 0 0 0 0 0 0 0 0 0 0 0 0 0 0 0 0 0 0 0 0 0 0 0 0 0 0 0 0 0 0 0
0 0 0 0 0 0 0 0 0 0 0 0 0 0 0 0 0 0 0 0 0 0 0 0 0 0 0 0 0 0 0 0 0 0 0 0 0 0 0 0 0 0 0
0 0 0 0 0 0 0 0 0 0 0 0 0 0 -0 0 0 0 0 0 0 0 0 0 0 0 0 0 0 0 0 0 0 0 0 0 0 0 0 0 0 0 0
0 0 0 0 0 0 0 -0 -0 0 0 0 0 0 0 0 0 0 0 0 0 0 0 0 0 0 0 0 0 0 0 0 0 0 0 0 0 0 0 0 0 0 0
0 0 0 0 0 0 0 -0 0 0 0 0 0 0 0 0 0 0 0 0 0 0 0 0 0 0 0 0 0 0 0 0 0 0 0 0 0 0 0 0 0 0 0
Wind_Speed_500mb
55 56 57 58 61 62 63 59 59 57 58 58 52 48 39 34 29 23 24 27 22 22 26 29 31 33 21 24 28 29 30 31 31 33 33 34 37 41 42 30 30 31 30
48 46 48 49 53 56 57 54 53 50 51 51 52 47 36 36 32 29 30 32 35 36 31 29 30 26 24 21 30 33 33 32 32 32 33 30 38 41 39 31 33 32 29
50 45 44 46 45 42 45 48 44 44 44 40 44 40 33 35 37 35 39 45 43 38 36 34 34 32 27 24 29 34 37 37 35 33 32 32 36 40 38 36 37 28 32
53 53 51 52 46 38 42 45 45 44 41 38 36 33 35 34 45 38 46 46 43 45 44 41 37 33 30 25 26 35 40 41 40 38 34 33 36 39 38 43 36 27 29
60 62 56 56 53 47 46 44 48 47 43 39 37 35 36 38 39 43 46 50 42 43 44 36 41 39 32 28 30 33 42 43 41 40 37 35 38 39 41 43 38 32 24
62 64 64 62 60 56 55 48 48 49 46 37 39 40 42 40 49 50 48 40 38 39 37 36 33 39 36 34 30 31 39 46 42 41 38 36 38 42 40 41 37 34 30
64 65 64 68 67 64 62 51 48 50 55 36 42 39 45 51 53 51 45 41 35 37 37 38 37 38 39 34 33 30 38 43 42 41 39 37 37 42 38 42 41 37 34
64 64 68 71 67 65 63 54 49 55 49 52 47 48 43 49 55 53 50 43 42 43 43 42 39 40 37 37 37 30 38 40 41 41 39 37 36 39 36 39 47 41 32
64 60 62 68 67 61 61 54 52 53 56 49 52 45 18 25 29 26 29 33 40 40 41 38 42 42 39 41 42 34 37 40 43 40 39 36 35 38 41 40 37 34 25
60 60 56 58 57 57 55 54 51 50 52 53 51 52 52 34 12 10 24 30 32 29 29 34 37 35 34 36 41 45 37 40 41 39 36 34 36 43 44 36 33 29 24
67 56 59 55 50 50 51 50 48 48 49 50 50 51 51 48 46 38 29 26 31 29 31 30 28 28 29 37 28 34 40 36 37 34 33 33 40 44 40 36 31 29 24
57 58 58 49 45 46 51 47 43 42 42 43 45 48 44 44 39 37 36 32 26 23 24 19 19 24 24 40 31 43 34 35 33 33 34 36 42 42 38 33 33 29 30
55 61 56 49 41 44 43 37 38 38 37 37 39 45 42 36 33 32 34 28 24 21 19 13 11 14 22 24 25 43 37 34 33 35 34 35 41 39 36 35 32 33 33
58 58 52 46 38 39 45 39 37 33 35 33 35 37 43 38 35 34 31 29 22 21 21 12 16 20 23 25 31 39 38 31 36 36 38 36 39 39 36 33 34 38 33
56 51 45 42 39 42 42 40 33 32 33 31 31 33 35 36 33 34 29 23 21 18 19 19 18 23 19 15 33 48 50 33 35 34 32 37 39 40 38 39 39 39 39
54 47 42 41 42 46 42 33 31 32 32 29 32 34 31 31 37 36 32 29 23 20 16 14 19 20 25 28 30 36 42 34 33 33 33 36 39 40 40 38 39 41 39
47 43 38 42 44 44 36 32 27 26 26 30 30 30 26 27 28 31 31 31 25 21 18 17 19 24 25 31 33 32 29 33 34 33 33 36 38 40 38 38 44 43 32
39 41 44 42 38 36 31 20 17 21 27 28 30 29 28 30 30 30 29 27 25 22 22 20 26 31 31 39 39 33 34 34 33 34 33 35 37 39 37 39 37 34 33
44 44 42 42 40 29 21 23 19 20 23 27 30 32 29 31 30 29 26 27 25 24 23 25 36 32 35 35 40 39 37 33 34 37 30 32 35 39 35 43 42 34 31
45 46 42 31 23 24 20 17 18 16 20 23 28 29 32 33 33 32 29 29 29 26 30 35 41 37 35 31 32 41 39 39 39 35 35 37 37 40 38 44 45 32 38
47 39 39 34 29 29 23 20 21 19 22 27 30 30 33 33 30 32 28 36 31 30 40 44 46 42 38 36 37 43 42 41 37 36 39 43 42 45 50 49 40 36 35
46 42 36 33 33 22 23 23 23 25 24 22 21 24 27 28 28 31 29 35 30 34 45 47 51 49 47 44 40 45 50 46 41 38 47 45 44 38 36 38 37 35 34
44 37 38 36 23 24 26 24 23 17 14 15 21 20 25 23 22 26 34 32 27 25 27 38 44 47 48 47 49 47 56 54 50 47 50 40 40 43 39 36 36 34 34
45 46 37 27 26 25 23 18 14 14 16 21 22 26 23 24 28 29 34 33 29 24 22 29 30 31 39 45 46 47 59 55 42 48 45 51 50 51 44 39 38 38 38
49 36 30 28 25 19 18 16 16 18 17 22 26 27 25 27 30 27 30 37 38 35 30 27 25 25 36 38 46 48 53 53 50 45 54 42 52 47 42 42 40 38 40
41 38 31 23 18 18 19 19 18 20 20 26 30 28 24 24 29 26 25 35 37 30 30 37 38 35 41 36 38 38 47 57 52 47 56 49 49 48 37 41 40 38 39
Wind_Direction_500mb
257 260 259 259 258 258 259 258 260 259 259 260 260 262 263 241 235 240 257 270 280 270 287 295 301 311 295 250 236 223 216 214 211 211 215 220 217 219 222 221 219 218 220
258 258 257 258 259 260 262 262 260 261 261 264 262 259 257 240 241 253 259 266 273 280 284 290 298 301 295 256 241 227 221 215 213 214 216 218 214 218 223 230 210 211 209
264 264 264 258 261 264 269 263 256 253 254 262 262 250 246 241 244 248 260 263 265 268 273 277 280 286 288 267 245 235 227 221 220 221 222 219 214 218 223 218 204 206 217
267 269 271 268 264 266 271 264 258 252 254 258 257 243 241 252 256 251 260 262 266 269 269 268 266 279 281 273 264 235 229 225 223 225 226 226 219 218 217 210 213 221 225
265 271 273 276 271 264 264 266 259 254 253 256 256 254 242 252 254 264 268 269 273 274 269 265 264 262 268 269 269 241 228 225 223 224 226 226 221 217 218 213 218 219 210
261 267 271 272 271 261 259 259 257 252 251 253 260 258 252 245 260 267 272 273 274 264 261 269 262 261 263 266 255 248 230 221 221 221 223 226 221 217 220 215 211 211 203
256 262 266 266 265 259 260 261 255 249 247 248 252 238 238 253 266 270 269 280 267 258 263 276 274 263 263 249 246 243 225 218 220 221 223 226 221 216 219 214 204 212 224
259 264 262 263 263 256 253 252 245 242 248 246 231 235 249 262 264 269 269 269 263 256 264 271 269 267 252 236 235 233 219 219 218 219 222 225 219 214 212 208 210 227 220
265 261 260 262 261 255 250 248 242 235 239 240 240 238 240 248 267 264 261 260 259 260 266 268 268 257 251 237 234 225 217 219 219 220 221 222 217 212 211 207 215 222 212
265 258 259 260 257 252 246 244 243 235 235 240 239 239 242 247 247 297 280 272 261 259 265 276 271 253 244 229 233 233 216 215 220 222 222 219 209 206 205 208 213 213 205
255 257 252 252 249 242 239 245 238 235 237 238 240 242 237 249 249 258 274 275 267 271 281 280 262 249 235 220 247 219 213 211 216 222 220 214 208 202 204 204 212 209 189
245 247 244 243 240 238 237 241 230 235 237 241 246 245 243 245 233 238 258 265 268 283 292 279 261 244 227 214 230 212 214 209 207 213 215 210 205 202 203 201 202 195 189
240 235 238 240 231 233 231 222 227 230 232 235 245 244 237 230 243 244 255 254 259 279 274 262 263 227 208 219 227 210 207 199 204 205 207 204 202 199 199 198 195 189 188
241 237 239 239 234 223 215 223 227 228 224 236 230 231 238 242 240 241 251 250 256 250 256 253 239 226 215 218 215 210 196 196 202 199 206 201 198 194 195 196 186 184 179
234 234 236 237 234 212 215 224 218 223 224 232 230 231 234 239 236 235 247 241 246 246 249 248 225 219 211 205 194 195 193 197 196 191 199 194 194 191 191 189 187 183 189
224 226 228 230 213 205 209 210 208 215 219 223 229 234 236 237 236 239 247 236 242 248 242 224 210 202 188 183 170 177 186 188 185 188 192 192 191 191 185 190 188 187 186
224 232 215 199 192 190 200 202 200 211 223 230 228 228 233 239 239 235 237 240 235 240 233 203 210 185 187 184 172 174 184 186 182 181 187 188 186 186 190 189 189 194 177
213 186 182 180 181 177 179 203 225 233 232 224 225 230 236 239 233 228 230 238 224 225 213 193 183 173 177 185 191 191 192 181 179 176 180 184 188 182 189 189 191 174 183
174 175 176 174 167 174 199 221 238 230 235 238 241 242 237 231 226 219 237 220 208 205 215 204 175 172 164 170 181 184 179 174 173 173 173 175 176 184 192 187 177 179 182
166 162 159 160 178 188 196 205 216 238 243 246 245 238 228 224 215 235 221 205 206 208 199 197 177 165 164 173 185 176 171 175 174 167 171 172 179 183 189 185 182 188 187
154 156 164 169 189 201 195 215 239 253 261 262 247 231 223 217 233 206 207 199 200 194 188 191 183 172 167 171 180 175 166 163 161 162 160 172 173 186 193 188 185 193 192
160 169 182 187 178 193 209 228 245 264 267 245 216 208 219 224 199 201 198 201 205 195 188 191 189 183 179 177 178 185 170 163 160 168 170 171 177 184 197 188 194 191 191
170 183 182 174 185 202 218 239 257 248 230 211 199 189 177 181 191 187 182 188 197 211 217 199 202 199 190 189 185 183 177 175 175 170 179 178 179 185 190 191 191 193 202
174 171 170 185 205 216 228 238 212 193 173 172 167 161 164 169 163 170 179 178 182 182 200 217 217 223 209 191 190 187 184 181 174 177 183 189 188 193 196 194 195 203 210
167 170 182 192 202 216 214 198 187 168 164 163 157 162 164 163 161 169 175 174 169 167 181 200 206 220 199 191 188 187 189 181 183 185 189 195 194 201 202 203 209 218 213
170 180 188 193 197 202 196 183 175 181 176 170 163 166 173 171 168 167 177 172 164 182 193 171 166 172 174 177 184 199 192 188 190 193 198 201 205 202 206 215 218 223 225
Wind_Speed_850mb
55 56 57 58 61 62 63 59 59 57 58 58 52 48 39 34 29 23 24 27 22 22 26 29 31 33 21 24 28 29 30 31 31 33 33 34 37 41 42 30 30 31 30
48 46 48 49 53 56 57 54 53 50 51 51 52 47 36 36 32 29 30 32 35 36 31 29 30 26 24 21 30 33 33 32 32 32 33 30 38 41 39 31 33 32 29
50 45 44 46 45 42 45 48 44 44 44 40 44 40 33 35 37 35 39 45 43 38 36 34 34 32 27 24 29 34 37 37 35 33 32 32 36 40 38 36 37 28 32
53 53 51 52 46 38 42 45 45 44 41 38 36 33 35 34 45 38 46 46 43 45 44 41 37 33 30 25 26 35 40 41 40 38 34 33 36 39 38 43 36 27 29
60 62 56 56 53 47 46 44 48 47 43 39 37 35 36 38 39 43 46 50 42 43 44 36 41 39 32 28 30 33 42 43 41 40 37 35 38 39 41 43 38 32 24
62 64 64 62 60 56 55 48 48 49 46 37 39 40 42 40 49 50 48 40 38 39 37 36 33 39 36 34 30 31 39 46 42 41 38 36 38 42 40 41 37 34 30
64 65 64 68 67 64 62 51 48 50 55 36 42 39 45 51 53 51 45 41 35 37 37 38 37 38 39 34 33 30 38 43 42 41 39 37 37 42 38 42 41 37 34
64 64 68 71 67 65 63 54 49 55 49 52 47 48 43 49 55 53 50 43 42 43 43 42 39 40 37 37 37 30 38 40 41 41 39 37 36 39 36 39 47 41 32
64 60 62 68 67 61 61 54 52 53 56 49 52 45 18 25 29 26 29 33 40 40 41 38 42 42 39 41 42 34 37 40 43 40 39 36 35 38 41 40 37 34 25
60 60 56 58 57 57 55 54 51 50 52 53 51 52 52 34 12 10 24 30 32 29 29 34 37 35 34 36 41 45 37 40 41 39 36 34 36 43 44 36 33 29 24
67 56 59 55 50 50 51 50 48 48 49 50 50 51 51 48 46 38 29 26 31 29 31 30 28 28 29 37 28 34 40 36 37 34 33 33 40 44 40 36 31 29 24
57 58 58 49 45 46 51 47 43 42 42 43 45 48 44 44 39 37 36 32 26 23 24 19 19 24 24 40 31 43 34 35 33 33 34 36 42 42 38 33 33 29 30
55 61 56 49 41 44 43 37 38 38 37 37 39 45 42 36 33 32 34 28 24 21 19 13 11 14 22 24 25 43 37 34 33 35 34 35 41 39 36 35 32 33 33
58 58 52 46 38 39 45 39 37 33 35 33 35 37 43 38 35 34 31 29 22 21 21 12 16 20 23 25 31 39 38 31 36 36 38 36 39 39 36 33 34 38 33
56 51 45 42 39 42 42 40 33 32 33 31 31 33 35 36 33 34 29 23 21 18 19 19 18 23 19 15 33 48 50 33 35 34 32 37 39 40 38 39 39 39 39
54 47 42 41 42 46 42 33 31 32 32 29 32 34 31 31 37 36 32 29 23 20 16 14 19 20 25 28 30 36 42 34 33 33 33 36 39 40 40 38 39 41 39
47 43 38 42 44 44 36 32 27 26 26 30 30 30 26 27 28 31 31 31 25 21 18 17 19 24 25 31 33 32 29 33 34 33 33 36 38 40 38 38 44 43 32
39 41 44 42 38 36 31 20 17 21 27 28 30 29 28 30 30 30 29 27 25 22 22 20 26 31 31 39 39 33 34 34 33 34 33 35 37 39 37 39 37 34 33
44 44 42 42 40 29 21 23 19 20 23 27 30 32 29 31 30 29 26 27 25 24 23 25 36 32 35 35 40 39 37 33 34 37 30 32 35 39 35 43 42 34 31
45 46 42 31 23 24 20 17 18 16 20 23 28 29 32 33 33 32 29 29 29 26 30 35 41 37 35 31 32 41 39 39 39 35 35 37 37 40 38 44 45 32 38
47 39 39 34 29 29 23 20 21 19 22 27 30 30 33 33 30 32 28 36 31 30 40 44 46 42 38 36 37 43 42 41 37 36 39 43 42 45 50 49 40 36 35
46 42 36 33 33 22 23 23 23 25 24 22 21 24 27 28 28 31 29 35 30 34 45 47 51 49 47 44 40 45 50 46 41 38 47 45 44 38 36 38 37 35 34
44 37 38 36 23 24 26 24 23 17 14 15 21 20 25 23 22 26 34 32 27 25 27 38 44 47 48 47 49 47 56 54 50 47 50 40 40 43 39 36 36 34 34
45 46 37 27 26 25 23 18 14 14 16 21 22 26 23 24 28 29 34 33 29 24 22 29 30 31 39 45 46 47 59 55 42 48 45 51 50 51 44 39 38 38 38
49 36 30 28 25 19 18 16 16 18 17 22 26 27 25 27 30 27 30 37 38 35 30 27 25 25 36 38 46 48 53 53 50 45 54 42 52 47 42 42 40 38 40
41 38 31 23 18 18 19 19 18 20 20 26 30 28 24 24 29 26 25 35 37 30 30 37 38 35 41 36 38 38 47 57 52 47 56 49 49 48 37 41 40 38 39
Wind_Direction_850mb
257 260 259 259 258 258 259 258 260 259 259 260 260 262 263 241 235 240 257 270 280 270 287 295 301 311 295 250 236 223 216 214 211 211 215 220 217 219 222 221 219 218 220
258 258 257 258 259 260 262 262 260 261 261 264 262 259 257 240 241 253 259 266 273 280 284 290 298 301 295 256 241 227 221 215 213 214 216 218 214 218 223 230 210 211 209
264 264 264 258 261 264 269 263 256 253 254 262 262 250 246 241 244 248 260 263 265 268 273 277 280 286 288 267 245 235 227 221 220 221 222 219 214 218 223 218 204 206 217
267 269 271 268 264 266 271 264 258 252 254 258 257 243 241 252 256 251 260 262 266 269 269 268 266 279 281 273 264 235 229 225 223 225 226 226 219 218 217 210 213 221 225
265 271 273 276 271 264 264 266 259 254 253 256 256 254 242 252 254 264 268 269 273 274 269 265 264 262 268 269 269 241 228 225 223 224 226 226 221 217 218 213 218 219 210
261 267 271 272 271 261 259 259 257 252 251 253 260 258 252 245 260 267 272 273 274 264 261 269 262 261 263 266 255 248 230 221 221 221 223 226 221 217 220 215 211 211 203
256 262 266 266 265 259 260 261 255 249 247 248 252 238 238 253 266 270 269 280 267 258 263 276 274 263 263 249 246 243 225 218 220 221 223 226 221 216 219 214 204 212 224
259 264 262 263 263 256 253 252 245 242 248 246 231 235 249 262 264 269 269 269 263 256 264 271 269 267 252 236 235 233 219 219 218 219 222 225 219 214 212 208 210 227 220
265 261 260 262 261 255 250 248 242 235 239 240 240 238 240 248 267 264 261 260 259 260 266 268 268 257 251 237 234 225 217 219 219 220 221 222 217 212 211 207 215 222 212
265 258 259 260 257 252 246 244 243 235 235 240 239 239 242 247 247 297 280 272 261 259 265 276 271 253 244 229 233 233 216 215 220 222 222 219 209 206 205 208 213 213 205
255 257 252 252 249 242 239 245 238 235 237 238 240 242 237 249 249 258 274 275 267 271 281 280 262 249 235 220 247 219 213 211 216 222 220 214 208 202 204 204 212 209 189
245 247 244 243 240 238 237 241 230 235 237 241 246 245 243 245 233 238 258 265 268 283 292 279 261 244 227 214 230 212 214 209 207 213 215 210 205 202 203 201 202 195 189
240 235 238 240 231 233 231 222 227 230 232 235 245 244 237 230 243 244 255 254 259 279 274 262 263 227 208 219 227 210 207 199 204 205 207 204 202 199 199 198 195 189 188
241 237 239 239 234 223 215 223 227 228 224 236 230 231 238 242 240 241 251 250 256 250 256 253 239 226 215 218 215 210 196 196 202 199 206 201 198 194 195 196 186 184 179
234 234 236 237 234 212 215 224 218 223 224 232 230 231 234 239 236 235 247 241 246 246 249 248 225 219 211 205 194 195 193 197 196 191 199 194 194 191 191 189 187 183 189
224 226 228 230 213 205 209 210 208 215 219 223 229 234 236 237 236 239 247 236 242 248 242 224 210 202 188 183 170 177 186 188 185 188 192 192 191 191 185 190 188 187 186
224 232 215 199 192 190 200 202 200 211 223 230 228 228 233 239 239 235 237 240 235 240 233 203 210 185 187 184 172 174 184 186 182 181 187 188 186 186 190 189 189 194 177
213 186 182 180 181 177 179 203 225 233 232 224 225 230 236 239 233 228 230 238 224 225 213 193 183 173 177 185 191 191 192 181 179 176 180 184 188 182 189 189 191 174 183
174 175 176 174 167 174 199 221 238 230 235 238 241 242 237 231 226 219 237 220 208 205 215 204 175 172 164 170 181 184 179 174 173 173 173 175 176 184 192 187 177 179 182
166 162 159 160 178 188 196 205 216 238 243 246 245 238 228 224 215 235 221 205 206 208 199 197 177 165 164 173 185 176 171 175 174 167 171 172 179 183 189 185 182 188 187
154 156 164 169 189 201 195 215 239 253 261 262 247 231 223 217 233 206 207 199 200 194 188 191 183 172 167 171 180 175 166 163 161 162 160 172 173 186 193 188 185 193 192
160 169 182 187 178 193 209 228 245 264 267 245 216 208 219 224 199 201 198 201 205 195 188 191 189 183 179 177 178 185 170 163 160 168 170 171 177 184 197 188 194 191 191
170 183 182 174 185 202 218 239 257 248 230 211 199 189 177 181 191 187 182 188 197 211 217 199 202 199 190 189 185 183 177 175 175 170 179 178 179 185 190 191 191 193 202
174 171 170 185 205 216 228 238 212 193 173 172 167 161 164 169 163 170 179 178 182 182 200 217 217 223 209 191 190 187 184 181 174 177 183 189 188 193 196 194 195 203 210
167 170 182 192 202 216 214 198 187 168 164 163 157 162 164 163 161 169 175 174 169 167 181 200 206 220 199 191 188 187 189 181 183 185 189 195 194 201 202 203 209 218 213
170 180 188 193 197 202 196 183 175 181 176 170 163 166 173 171 168 167 177 172 164 182 193 171 166 172 174 177 184 199 192 188 190 193 198 201 205 202 206 215 218 223 225